KD4PMP Weather Reports


time (UTC)temp
C
wind
direction
speed
KPH
gust
KPH
rain 1hr
cm
rain 24hr
cm
rain mn
cm
humidity
%
barometer
mb
20260906022432 30 124 0.0 3.2 0.00 0.00 0.00 74 1009.7
20260906021425 31 124 3.2 4.8 0.00 0.00 0.00 70 1009.6
20260906020419 31 116 0.0 6.4 0.00 0.00 0.00 69 1009.3
20260906015412 31 102 3.2 4.8 0.00 0.00 0.00 67 1009.2
20260906014406 31 318 0.0 8.0 0.00 0.00 0.00 66 1009.3
20260906013400 31 115 0.0 14.5 0.00 0.00 0.00 65 1009.2
20260906012353 31 105 6.4 12.9 0.00 0.00 0.00 66 1009.3
20260906011347 31 336 1.6 1.6 0.00 0.00 0.00 67 1009.2
20260906010341 32 336 0.0 1.6 0.00 0.00 0.00 66 1009.1
20260906005334 32 336 0.0 1.6 0.00 0.00 0.00 64 1009.1
20260906004328 32 336 0.0 0.0 0.00 0.00 0.00 63 1009.0
20260906003322 33 336 0.0 0.0 0.00 0.00 0.00 61 1009.1
20260906002315 33 336 0.0 0.0 0.00 0.00 0.00 59 1009.1
20260906001309 34 336 0.0 3.2 0.00 0.00 0.00 57 1009.1
20260906000303 35 336 0.0 4.8 0.00 0.00 0.00 56 1008.9
20260905235256 35 328 3.2 6.4 0.00 0.00 0.00 54 1009.0
20260905234249 35 298 3.2 9.7 0.00 0.00 0.00 53 1009.2
20260905233243 36 300 8.0 11.3 0.00 0.00 0.00 52 1009.2
20260905232237 36 304 3.2 9.7 0.00 0.00 0.00 51 1009.2
20260905231230 36 248 1.6 12.9 0.00 0.00 0.00 50 1009.0
20260905230224 37 322 6.4 9.7 0.00 0.00 0.00 50 1009.0
20260905225218 37 350 4.8 12.9 0.00 0.00 0.00 49 1008.9
20260905224211 37 300 4.8 8.0 0.00 0.00 0.00 48 1009.0
20260905223204 37 228 6.4 9.7 0.00 0.00 0.00 46 1009.1
20260905222158 37 281 1.6 16.1 0.00 0.00 0.00 46 1009.1
20260905221152 38 313 6.4 16.1 0.00 0.00 0.00 44 1009.0
20260905220145 38 312 6.4 11.3 0.00 0.00 0.00 45 1009.0
20260905215139 38 237 4.8 12.9 0.00 0.00 0.00 44 1009.0
20260905214132 38 309 12.9 12.9 0.00 0.00 0.00 44 1009.1
20260905213126 38 305 1.6 16.1 0.00 0.00 0.00 45 1009.1
20260905212120 38 331 4.8 12.9 0.00 0.00 0.00 47 1009.0
20260905211113 38 275 4.8 14.5 0.00 0.00 0.00 44 1009.2
20260905210107 38 264 6.4 17.7 0.00 0.00 0.00 43 1009.3
20260905205100 38 264 11.3 14.5 0.00 0.00 0.00 45 1009.5
20260905204054 38 115 3.2 12.9 0.00 0.00 0.00 44 1009.4
20260905203047 38 323 4.8 6.4 0.00 0.00 0.00 47 1009.6
20260905202041 38 298 1.6 9.7 0.00 0.00 0.00 45 1009.8
20260905201035 37 238 3.2 11.3 0.00 0.00 0.00 46 1010.1
20260905200028 38 317 6.4 12.9 0.00 0.00 0.00 45 1010.3
20260905195021 38 289 1.6 9.7 0.00 0.00 0.00 46 1010.4
20260905194014 38 248 1.6 4.8 0.00 0.00 0.00 46 1010.4
20260905193008 38 206 0.0 9.7 0.00 0.00 0.00 46 1010.5
20260905192002 38 260 4.8 8.0 0.00 0.00 0.00 47 1010.5
20260905190956 38 222 4.8 9.7 0.00 0.00 0.00 48 1010.7
20260905185949 37 207 1.6 6.4 0.00 0.00 0.00 50 1011.0
20260905184943 37 295 1.6 8.0 0.00 0.00 0.00 52 1011.1
20260905183937 37 259 4.8 6.4 0.00 0.00 0.00 53 1011.3
20260905182930 37 244 0.0 17.7 0.00 0.00 0.00 54 1011.5
20260905181924 36 109 0.0 12.9 0.00 0.00 0.00 55 1011.6
20260905180918 36 290 3.2 9.7 0.00 0.00 0.00 56 1011.8
20260905175911 35 201 3.2 11.3 0.00 0.00 0.00 55 1011.9
20260905174905 35 113 11.3 11.3 0.00 0.00 0.00 53 1011.9
20260905173859 36 128 4.8 6.4 0.00 0.00 0.00 54 1012.0
20260905172852 35 19 3.2 6.4 0.00 0.00 0.00 54 1012.0
20260905171846 35 40 4.8 4.8 0.00 0.00 0.00 53 1012.1
20260905170840 35 272 6.4 14.5 0.00 0.00 0.00 57 1012.3
20260905165833 35 121 4.8 6.4 0.00 0.00 0.00 59 1012.4
20260905164827 34 331 0.0 6.4 0.00 0.00 0.00 59 1012.5
20260905163821 33 65 0.0 4.8 0.00 0.00 0.00 62 1012.6
20260905162814 33 96 1.6 11.3 0.00 0.00 0.00 60 1012.8
20260905161808 33 92 6.4 6.4 0.00 0.00 0.00 62 1012.8
20260905160801 33 96 0.0 6.4 0.00 0.00 0.00 65 1013.0
20260905155755 33 77 3.2 4.8 0.00 0.00 0.00 66 1013.2
20260905154748 32 43 0.0 6.4 0.00 0.00 0.00 70 1013.2
20260905153742 31 292 1.6 6.4 0.00 0.00 0.00 72 1013.3
20260905152735 31 115 3.2 3.2 0.00 0.00 0.00 76 1013.3
20260905151729 30 116 0.0 3.2 0.00 0.00 0.00 79 1013.4
20260905150723 29 116 0.0 3.2 0.00 0.00 0.00 81 1013.5
20260905145717 28 112 0.0 0.0 0.00 0.00 0.00 83 1013.4
20260905144710 27 112 0.0 0.0 0.00 0.00 0.00 85 1013.4
20260905143704 27 112 0.0 0.0 0.00 0.00 0.00 87 1013.5
20260905142658 26 112 0.0 1.6 0.00 0.00 0.00 87 1013.4
20260905141652 26 112 0.0 3.2 0.00 0.00 0.00 89 1013.5
20260905140645 26 110 0.0 3.2 0.00 0.00 0.00 90 1013.5
20260905135639 25 110 1.6 4.8 0.00 0.00 0.00 91 1013.4
20260905134633 25 110 0.0 1.6 0.00 0.00 0.00 92 1013.4
20260905133626 25 110 1.6 3.2 0.00 0.00 0.00 92 1013.4
20260905132620 25 110 1.6 3.2 0.00 0.00 0.00 94 1013.5
20260905131613 24 110 0.0 0.0 0.00 0.00 0.00 95 1013.6
20260905130607 24 110 0.0 0.0 0.00 0.00 0.00 95 1013.5
20260905125600 24 110 0.0 0.0 0.00 0.00 0.00 96 1013.6
20260905124554 23 110 0.0 0.0 0.00 0.00 0.00 97 1013.7
20260905123548 23 110 0.0 0.0 0.00 0.00 0.00 97 1013.8
20260905122541 23 110 0.0 0.0 0.00 0.00 0.00 98 1013.5
20260905121535 23 110 0.0 0.0 0.00 0.00 0.00 97 1013.4
20260905120529 23 110 0.0 0.0 0.00 0.00 0.00 97 1013.2
20260905115522 23 110 0.0 0.0 0.00 0.00 0.00 97 1013.1
20260905114516 23 110 0.0 0.0 0.00 0.00 0.00 97 1013.0
20260905113510 23 110 0.0 0.0 0.00 0.00 0.00 97 1012.9
20260905112503 23 110 0.0 0.0 0.00 0.00 0.00 97 1012.7
20260905111457 23 110 0.0 0.0 0.00 0.00 0.00 97 1012.7
20260905110451 23 110 0.0 0.0 0.00 0.00 0.00 97 1012.5
20260905105444 23 110 0.0 0.0 0.00 0.00 0.00 97 1012.3
20260905104438 23 110 0.0 0.0 0.00 0.00 0.00 97 1012.2
20260905103431 23 110 0.0 0.0 0.00 0.00 0.00 97 1012.2
20260905102425 23 110 0.0 0.0 0.00 0.00 0.00 97 1012.1
20260905101419 23 110 0.0 0.0 0.00 0.00 0.00 97 1012.1
20260905100412 23 110 0.0 0.0 0.00 0.00 0.00 97 1012.0
20260905095405 23 110 0.0 0.0 0.00 0.00 0.00 97 1011.9
20260905094359 23 110 0.0 0.0 0.00 0.00 0.00 96 1011.9
20260905093353 23 110 0.0 0.0 0.00 0.00 0.00 96 1011.9
20260905092347 23 110 0.0 0.0 0.00 0.00 0.00 96 1012.0
20260905091340 23 110 0.0 0.0 0.00 0.00 0.00 96 1011.9
20260905090334 23 110 0.0 0.0 0.00 0.00 0.00 96 1011.9
20260905085327 23 110 0.0 0.0 0.00 0.00 0.00 96 1011.8
20260905084321 23 110 0.0 0.0 0.00 0.00 0.00 96 1011.9
20260905083314 23 110 0.0 0.0 0.00 0.00 0.00 96 1012.0
20260905082308 23 110 0.0 0.0 0.00 0.00 0.00 96 1011.9
20260905081301 23 110 0.0 0.0 0.00 0.00 0.00 96 1012.2
20260905080255 23 110 0.0 0.0 0.00 0.00 0.00 96 1012.2
20260905075249 23 110 0.0 0.0 0.00 0.00 0.00 96 1012.2
20260905074242 23 110 0.0 0.0 0.00 0.00 0.00 96 1012.2
20260905073236 23 110 0.0 0.0 0.00 0.00 0.00 96 1012.2
20260905072229 23 110 0.0 0.0 0.00 0.00 0.00 96 1012.1
20260905071223 23 110 0.0 0.0 0.00 0.00 0.00 96 1012.1
20260905070216 23 110 0.0 0.0 0.00 0.00 0.00 95 1012.2
20260905065210 24 110 0.0 0.0 0.00 0.00 0.00 95 1012.2
20260905064204 24 110 0.0 0.0 0.00 0.00 0.00 95 1012.2
20260905063157 24 110 0.0 0.0 0.00 0.00 0.00 95 1012.2
20260905062151 24 110 0.0 0.0 0.00 0.00 0.00 95 1012.2
20260905061145 24 110 0.0 0.0 0.00 0.00 0.00 95 1012.2
20260905060138 24 110 0.0 0.0 0.00 0.00 0.00 95 1012.1
20260905055132 24 110 0.0 1.6 0.00 0.00 0.00 95 1012.2
20260905054126 24 110 0.0 1.6 0.00 0.00 0.00 95 1012.3
20260905053119 24 110 0.0 0.0 0.00 0.00 0.00 95 1012.2
20260905052113 24 110 0.0 0.0 0.00 0.00 0.00 94 1012.4
20260905051106 24 110 0.0 3.2 0.00 0.00 0.00 95 1012.4
20260905050100 24 110 0.0 1.6 0.00 0.00 0.00 95 1012.3
20260905045053 24 110 0.0 1.6 0.00 0.00 0.00 94 1012.3
20260905044047 25 110 0.0 0.0 0.00 0.00 0.00 95 1012.4
20260905043041 25 110 0.0 0.0 0.00 0.00 0.00 94 1012.4
20260905042034 25 110 0.0 0.0 0.00 0.00 0.00 94 1012.5
20260905041028 25 110 0.0 1.6 0.00 0.00 0.00 94 1012.6
20260905040022 25 110 0.0 1.6 0.00 0.00 0.00 94 1012.5
20260905035015 25 110 0.0 1.6 0.00 0.00 0.00 94 1012.6
20260905034009 25 110 0.0 0.0 0.00 0.00 0.00 94 1012.6
20260905033002 25 110 0.0 0.0 0.00 0.00 0.00 94 1012.6
20260905031956 25 110 0.0 0.0 0.00 0.00 0.00 94 1012.7
20260905030950 25 110 0.0 1.6 0.00 0.00 0.00 94 1012.8
20260905025943 25 110 0.0 1.6 0.00 0.00 0.00 93 1012.9
20260905024937 25 110 0.0 3.2 0.00 0.00 0.00 94 1013.1
20260905023931 25 110 0.0 0.0 0.00 0.00 0.00 94 1012.9
20260905022924 25 110 0.0 0.0 0.00 0.00 0.00 94 1013.0